JBU1022 KICT-KSTL

Flight info

Callsign JBU1022
Flight time 0h 57m
Altitude 33000
Route ROKNE DCT FOWNE DCT BUM KAYLA3
Aircraft A320/M-SDE3FGHIRWY/LB1

Departure

Time 2026-05-06 00:02
Airport Wichita Dwight D. Eisenhower National Airport (KICT)

Arrival

Time 2026-05-06 01:00
Airport St. Louis Lambert International Airport (KSTL)
Time Latitude Longitude Altitude Speed Heading
2026-05-05 23:44 37.65277 -97.43152 1327 ft 0 kts 60°
2026-05-05 23:51 37.65276 -97.43155 1328 ft 1 kts 58°
2026-05-05 23:51 37.65266 -97.43169 1328 ft 2 kts 61°
2026-05-05 23:51 37.65260 -97.43185 1328 ft 2 kts 59°
2026-05-05 23:52 37.65255 -97.43195 1328 ft 2 kts 59°
2026-05-05 23:52 37.65243 -97.43208 1328 ft 2 kts 22°
2026-05-05 23:52 37.65229 -97.43211 1327 ft 2 kts 352°
2026-05-05 23:52 37.65220 -97.43208 1328 ft 0 kts 332°
2026-05-05 23:53 37.65213 -97.43203 1327 ft 0 kts 329°
2026-05-05 23:55 37.65232 -97.43220 1327 ft 6 kts 316°
2026-05-05 23:55 37.65244 -97.43275 1327 ft 7 kts 260°
2026-05-05 23:55 37.65183 -97.43289 1327 ft 12 kts 153°
2026-05-05 23:55 37.65096 -97.43229 1326 ft 15 kts 149°
2026-05-05 23:56 37.64989 -97.43186 1324 ft 17 kts 189°
2026-05-05 23:56 37.64918 -97.43110 1324 ft 16 kts 85°
2026-05-05 23:56 37.64930 -97.42966 1324 ft 16 kts 86°
2026-05-05 23:56 37.64982 -97.42859 1324 ft 15 kts
2026-05-05 23:57 37.65029 -97.42952 1325 ft 15 kts 267°
2026-05-05 23:57 37.65022 -97.43085 1325 ft 15 kts 266°
2026-05-05 23:57 37.64962 -97.43186 1324 ft 15 kts 200°
2026-05-05 23:57 37.64904 -97.43295 1324 ft 16 kts 264°
2026-05-05 23:58 37.64891 -97.43436 1324 ft 16 kts 264°
2026-05-05 23:58 37.64880 -97.43578 1325 ft 16 kts 265°
2026-05-05 23:58 37.64872 -97.43723 1325 ft 16 kts 266°
2026-05-05 23:58 37.64941 -97.43794 1326 ft 15 kts 14°
2026-05-05 23:59 37.65054 -97.43744 1329 ft 20 kts 21°
2026-05-05 23:59 37.65210 -97.43671 1328 ft 25 kts 19°
2026-05-05 23:59 37.65385 -97.43593 1329 ft 28 kts 20°
2026-05-05 23:59 37.65573 -97.43506 1331 ft 28 kts 20°
2026-05-06 00:00 37.65763 -97.43419 1329 ft 28 kts 20°
2026-05-06 00:00 37.65947 -97.43336 1328 ft 27 kts 20°
2026-05-06 00:00 37.66067 -97.43284 1329 ft 13 kts 13°
2026-05-06 00:00 37.66093 -97.43285 1329 ft 0 kts 345°
2026-05-06 00:01 37.66127 -97.43330 1330 ft 10 kts 285°
2026-05-06 00:01 37.66066 -97.43425 1329 ft 17 kts 201°
2026-05-06 00:01 37.65788 -97.43549 1332 ft 78 kts 200°
2026-05-06 00:02 37.65050 -97.43890 1329 ft 143 kts 200°
2026-05-06 00:02 37.63951 -97.44391 1363 ft 188 kts 198°
2026-05-06 00:02 37.62678 -97.44990 1809 ft 200 kts 199°
2026-05-06 00:02 37.61283 -97.45506 2236 ft 222 kts 190°
2026-05-06 00:03 37.59689 -97.45834 2793 ft 239 kts 176°
2026-05-06 00:03 37.58079 -97.45323 3354 ft 245 kts 143°
2026-05-06 00:03 37.56879 -97.43851 3875 ft 248 kts 114°
2026-05-06 00:03 37.56426 -97.41753 4425 ft 251 kts 84°
2026-05-06 00:04 37.56897 -97.39674 5176 ft 250 kts 56°
2026-05-06 00:04 37.58125 -97.38187 5981 ft 253 kts 28°
2026-05-06 00:04 37.59846 -97.37618 6711 ft 263 kts
2026-05-06 00:04 37.61628 -97.38173 7464 ft 273 kts 332°
2026-05-06 00:05 37.64859 -97.40707 9046 ft 285 kts 347°
2026-05-06 00:05 37.66846 -97.40575 9702 ft 298 kts 18°
2026-05-06 00:05 37.68584 -97.39098 10357 ft 311 kts 50°
2026-05-06 00:06 37.69590 -97.36663 11016 ft 321 kts 72°
2026-05-06 00:06 37.70201 -97.33921 11547 ft 335 kts 75°
2026-05-06 00:06 37.70874 -97.31063 12045 ft 349 kts 71°
2026-05-06 00:06 37.71706 -97.28109 12538 ft 362 kts 68°
2026-05-06 00:07 37.72659 -97.25127 13023 ft 374 kts 66°
2026-05-06 00:07 37.73688 -97.22109 13502 ft 379 kts 65°
2026-05-06 00:07 37.74763 -97.19064 13986 ft 383 kts 64°
2026-05-06 00:07 37.75871 -97.15968 14478 ft 388 kts 64°
2026-05-06 00:08 37.76990 -97.12853 14969 ft 393 kts 64°
2026-05-06 00:08 37.78125 -97.09706 15455 ft 398 kts 64°
2026-05-06 00:08 37.79262 -97.06551 15938 ft 402 kts 64°
2026-05-06 00:08 37.80424 -97.03327 16425 ft 407 kts 64°
2026-05-06 00:09 37.81607 -97.00038 16916 ft 411 kts 64°
2026-05-06 00:09 37.82793 -96.96735 17406 ft 416 kts 63°
2026-05-06 00:09 37.83992 -96.93395 17900 ft 422 kts 64°
2026-05-06 00:09 37.85198 -96.90025 18379 ft 426 kts 64°
2026-05-06 00:10 37.86428 -96.86586 18861 ft 433 kts 64°
2026-05-06 00:10 37.87643 -96.83095 19333 ft 439 kts 66°
2026-05-06 00:10 37.88670 -96.79459 19817 ft 446 kts 72°
2026-05-06 00:10 37.89457 -96.75642 20308 ft 452 kts 77°
2026-05-06 00:11 37.90095 -96.71741 20794 ft 458 kts 79°
2026-05-06 00:11 37.90710 -96.67760 21265 ft 464 kts 79°
2026-05-06 00:11 37.91331 -96.63719 21750 ft 470 kts 79°
2026-05-06 00:11 37.91956 -96.59693 22220 ft 475 kts 79°
2026-05-06 00:12 37.92606 -96.55543 22698 ft 480 kts 79°
2026-05-06 00:12 37.93256 -96.51423 23171 ft 485 kts 79°
2026-05-06 00:12 37.93923 -96.47214 23648 ft 489 kts 79°
2026-05-06 00:12 37.94584 -96.43031 24117 ft 493 kts 78°
2026-05-06 00:13 37.95256 -96.38757 24596 ft 496 kts 78°
2026-05-06 00:13 37.95932 -96.34441 25089 ft 500 kts 79°
2026-05-06 00:13 37.96612 -96.30118 25578 ft 502 kts 79°
2026-05-06 00:13 37.97294 -96.25796 26074 ft 503 kts 79°
2026-05-06 00:14 37.97969 -96.21455 26567 ft 505 kts 79°
2026-05-06 00:14 37.98648 -96.17082 27058 ft 506 kts 78°
2026-05-06 00:14 37.99321 -96.12773 27539 ft 507 kts 79°
2026-05-06 00:14 38.00004 -96.08375 27999 ft 508 kts 78°
2026-05-06 00:15 38.00679 -96.03987 28434 ft 510 kts 79°
2026-05-06 00:15 38.01364 -95.99557 28878 ft 511 kts 79°
2026-05-06 00:15 38.02034 -95.95180 29311 ft 513 kts 78°
2026-05-06 00:15 38.02716 -95.90771 29756 ft 514 kts 78°
2026-05-06 00:16 38.03476 -95.86332 30208 ft 514 kts 77°
2026-05-06 00:16 38.04266 -95.81947 30654 ft 515 kts 76°
2026-05-06 00:16 38.05071 -95.77509 31107 ft 515 kts 76°
2026-05-06 00:16 38.05859 -95.73138 31552 ft 515 kts 76°
2026-05-06 00:17 38.06654 -95.68705 32002 ft 515 kts 76°
2026-05-06 00:17 38.07443 -95.64283 32455 ft 514 kts 76°
2026-05-06 00:17 38.08219 -95.59870 32843 ft 515 kts 76°
2026-05-06 00:18 38.09797 -95.50898 32934 ft 535 kts 76°
2026-05-06 00:18 38.11441 -95.41501 32934 ft 555 kts 77°
2026-05-06 00:19 38.13127 -95.31813 32928 ft 572 kts 77°
2026-05-06 00:19 38.14849 -95.21842 32931 ft 581 kts 77°
2026-05-06 00:20 38.16560 -95.11880 33405 ft 576 kts 77°
2026-05-06 00:20 38.17405 -95.06961 33912 ft 572 kts 77°
2026-05-06 00:20 38.18238 -95.02077 34422 ft 567 kts 77°
2026-05-06 00:20 38.19075 -94.97164 34944 ft 562 kts 78°
2026-05-06 00:21 38.19897 -94.92345 35461 ft 557 kts 77°
2026-05-06 00:21 38.20707 -94.87565 35883 ft 555 kts 77°
2026-05-06 00:21 38.21513 -94.82801 35932 ft 560 kts 77°
2026-05-06 00:22 38.23161 -94.73032 35637 ft 578 kts 77°
2026-05-06 00:22 38.24006 -94.67963 35348 ft 582 kts 77°
2026-05-06 00:22 38.24849 -94.62960 35062 ft 583 kts 77°
2026-05-06 00:22 38.25678 -94.57972 34933 ft 581 kts 76°
2026-05-06 00:23 38.26510 -94.52961 34929 ft 581 kts 77°
2026-05-06 00:23 38.28175 -94.42910 34931 ft 581 kts 77°
2026-05-06 00:24 38.29834 -94.32847 34924 ft 581 kts 77°
2026-05-06 00:24 38.31465 -94.22842 34935 ft 580 kts 77°
2026-05-06 00:25 38.33085 -94.12858 34935 ft 581 kts 78°
2026-05-06 00:25 38.34713 -94.02804 34930 ft 579 kts 78°
2026-05-06 00:26 38.36324 -93.92780 34934 ft 579 kts 77°
2026-05-06 00:26 38.37921 -93.82785 34942 ft 579 kts 77°
2026-05-06 00:27 38.39516 -93.72751 34939 ft 577 kts 78°
2026-05-06 00:27 38.41097 -93.62741 34941 ft 577 kts 77°
2026-05-06 00:28 38.42661 -93.52802 34946 ft 577 kts 77°
2026-05-06 00:28 38.44233 -93.42750 34935 ft 576 kts 77°
2026-05-06 00:29 38.45780 -93.32781 34931 ft 576 kts 78°
2026-05-06 00:29 38.47316 -93.22815 34937 ft 576 kts 78°
2026-05-06 00:30 38.48856 -93.12810 34934 ft 576 kts 78°
2026-05-06 00:30 38.50387 -93.02804 34928 ft 576 kts 78°
2026-05-06 00:30 38.51138 -92.97848 34785 ft 576 kts 78°
2026-05-06 00:31 38.51891 -92.92829 34381 ft 570 kts 78°
2026-05-06 00:31 38.52631 -92.87942 34023 ft 567 kts 78°
2026-05-06 00:31 38.53374 -92.83013 33656 ft 565 kts 77°
2026-05-06 00:31 38.54120 -92.78041 33314 ft 572 kts 78°
2026-05-06 00:32 38.54861 -92.73106 32990 ft 572 kts 78°
2026-05-06 00:32 38.55603 -92.68133 32661 ft 569 kts 77°
2026-05-06 00:32 38.56335 -92.63199 32342 ft 567 kts 77°
2026-05-06 00:32 38.57059 -92.58285 32011 ft 563 kts 77°
2026-05-06 00:33 38.57782 -92.53391 31687 ft 560 kts 78°
2026-05-06 00:33 38.58498 -92.48529 31367 ft 557 kts 77°
2026-05-06 00:33 38.59214 -92.43676 31041 ft 554 kts 77°
2026-05-06 00:33 38.59919 -92.38873 30725 ft 551 kts 77°
2026-05-06 00:34 38.60619 -92.34074 30398 ft 548 kts 78°
2026-05-06 00:34 38.61312 -92.29330 30072 ft 546 kts 78°
2026-05-06 00:34 38.62005 -92.24563 29748 ft 554 kts 77°
2026-05-06 00:34 38.62709 -92.19706 29430 ft 565 kts 78°
2026-05-06 00:35 38.63421 -92.14761 29107 ft 565 kts 78°
2026-05-06 00:35 38.64127 -92.09862 28787 ft 561 kts 77°
2026-05-06 00:35 38.64828 -92.04967 28470 ft 557 kts 78°
2026-05-06 00:35 38.65514 -92.00168 28157 ft 553 kts 77°
2026-05-06 00:36 38.66208 -91.95316 27830 ft 549 kts 78°
2026-05-06 00:36 38.66888 -91.90522 27504 ft 545 kts 78°
2026-05-06 00:36 38.67556 -91.85830 27191 ft 541 kts 78°
2026-05-06 00:36 38.68216 -91.81149 26869 ft 536 kts 78°
2026-05-06 00:37 38.68848 -91.76456 26544 ft 533 kts 80°
2026-05-06 00:37 38.69213 -91.71810 26203 ft 524 kts 87°
2026-05-06 00:37 38.69313 -91.67175 25799 ft 515 kts 89°
2026-05-06 00:37 38.69315 -91.62627 25274 ft 510 kts 91°
2026-05-06 00:38 38.69303 -91.58175 25061 ft 498 kts 90°
2026-05-06 00:38 38.69299 -91.53784 24864 ft 486 kts 90°
2026-05-06 00:38 38.69307 -91.49574 24600 ft 477 kts 90°
2026-05-06 00:38 38.69323 -91.45361 24155 ft 473 kts 90°
2026-05-06 00:39 38.69337 -91.41150 23697 ft 470 kts 90°
2026-05-06 00:39 38.69355 -91.37006 22980 ft 468 kts 91°
2026-05-06 00:39 38.69374 -91.32907 22202 ft 459 kts 92°
2026-05-06 00:39 38.69389 -91.28873 21425 ft 448 kts 92°
2026-05-06 00:40 38.69400 -91.24960 20652 ft 438 kts 92°
2026-05-06 00:40 38.69409 -91.21142 19873 ft 428 kts 92°
2026-05-06 00:40 38.69456 -91.17401 19086 ft 419 kts 90°
2026-05-06 00:40 38.69560 -91.13743 18296 ft 412 kts 90°
2026-05-06 00:41 38.69674 -91.10086 17516 ft 415 kts 90°
2026-05-06 00:41 38.69779 -91.06397 16744 ft 420 kts 91°
2026-05-06 00:41 38.69873 -91.02650 15954 ft 425 kts 89°
2026-05-06 00:41 38.69962 -90.98882 15349 ft 423 kts 90°
2026-05-06 00:42 38.70051 -90.95172 14991 ft 415 kts 89°
2026-05-06 00:42 38.70138 -90.91530 14879 ft 399 kts 90°
2026-05-06 00:42 38.70222 -90.88028 14400 ft 397 kts 90°
2026-05-06 00:42 38.70304 -90.84490 13496 ft 405 kts 90°
2026-05-06 00:43 38.70388 -90.80956 12578 ft 398 kts 90°
2026-05-06 00:43 38.70468 -90.77464 11649 ft 389 kts 91°
2026-05-06 00:43 38.70545 -90.74064 10804 ft 377 kts 91°
2026-05-06 00:43 38.70631 -90.70821 10248 ft 357 kts 90°
2026-05-06 00:44 38.70764 -90.67750 9896 ft 335 kts 90°
2026-05-06 00:44 38.70898 -90.64885 9552 ft 318 kts 89°
2026-05-06 00:44 38.71025 -90.62069 9202 ft 313 kts 89°
2026-05-06 00:44 38.71144 -90.59353 8986 ft 304 kts 88°
2026-05-06 00:45 38.71260 -90.56712 8972 ft 288 kts 88°
2026-05-06 00:45 38.71366 -90.54240 8968 ft 272 kts 91°
2026-05-06 00:45 38.71111 -90.51942 8960 ft 252 kts 114°
2026-05-06 00:45 38.70336 -90.50039 8947 ft 236 kts 126°
2026-05-06 00:46 38.69427 -90.48261 8620 ft 239 kts 128°
2026-05-06 00:46 38.68502 -90.46488 8271 ft 241 kts 127°
2026-05-06 00:46 38.67583 -90.44696 7922 ft 243 kts 126°
2026-05-06 00:46 38.66671 -90.42883 7572 ft 245 kts 124°
2026-05-06 00:47 38.65754 -90.41037 7218 ft 246 kts 123°
2026-05-06 00:47 38.64846 -90.39194 6865 ft 248 kts 122°
2026-05-06 00:47 38.63923 -90.37322 6507 ft 249 kts 122°
2026-05-06 00:47 38.63004 -90.35461 6153 ft 250 kts 121°
2026-05-06 00:48 38.62063 -90.33559 5794 ft 251 kts 121°
2026-05-06 00:48 38.61126 -90.31671 5436 ft 252 kts 121°
2026-05-06 00:48 38.60195 -90.29791 5093 ft 252 kts 120°
2026-05-06 00:48 38.59365 -90.27887 4971 ft 239 kts 107°
2026-05-06 00:49 38.58770 -90.25986 4966 ft 225 kts 115°
2026-05-06 00:49 38.57951 -90.24309 4974 ft 222 kts 121°
2026-05-06 00:49 38.57063 -90.22671 4978 ft 222 kts 122°
2026-05-06 00:49 38.56186 -90.21061 4978 ft 223 kts 122°
2026-05-06 00:50 38.55296 -90.19422 4846 ft 224 kts 122°
2026-05-06 00:50 38.54411 -90.17796 4614 ft 222 kts 122°
2026-05-06 00:50 38.53516 -90.16195 4382 ft 220 kts 122°
2026-05-06 00:50 38.52624 -90.14630 4152 ft 219 kts 121°
2026-05-06 00:51 38.51717 -90.13077 3923 ft 218 kts 122°
2026-05-06 00:51 38.50885 -90.11480 3685 ft 212 kts 104°
2026-05-06 00:51 38.50864 -90.09729 3483 ft 192 kts 57°
2026-05-06 00:51 38.51670 -90.08528 3473 ft 170 kts 30°
2026-05-06 00:52 38.52689 -90.07971 3454 ft 152 kts
2026-05-06 00:52 38.53707 -90.07962 3444 ft 145 kts 350°
2026-05-06 00:52 38.54655 -90.08451 3474 ft 149 kts 333°
2026-05-06 00:52 38.55513 -90.09179 3477 ft 150 kts 331°
2026-05-06 00:53 38.56392 -90.09939 3480 ft 151 kts 332°
2026-05-06 00:53 38.57254 -90.10683 3475 ft 151 kts 332°
2026-05-06 00:53 38.58120 -90.11427 3476 ft 151 kts 331°
2026-05-06 00:53 38.59000 -90.12182 3481 ft 151 kts 332°
2026-05-06 00:54 38.59874 -90.12930 3477 ft 150 kts 332°
2026-05-06 00:54 38.60736 -90.13668 3480 ft 150 kts 332°
2026-05-06 00:54 38.61607 -90.14414 3475 ft 150 kts 332°
2026-05-06 00:54 38.62475 -90.15157 3480 ft 151 kts 332°
2026-05-06 00:55 38.63332 -90.15892 3553 ft 145 kts 332°
2026-05-06 00:55 38.64149 -90.16595 3491 ft 137 kts 332°
2026-05-06 00:55 38.64940 -90.17272 3485 ft 137 kts 332°
2026-05-06 00:55 38.65722 -90.17942 3479 ft 137 kts 329°
2026-05-06 00:56 38.66415 -90.18829 3389 ft 143 kts 314°
2026-05-06 00:56 38.66962 -90.19885 3210 ft 143 kts 309°
2026-05-06 00:56 38.67482 -90.20978 3000 ft 143 kts 309°
2026-05-06 00:56 38.67997 -90.22056 2789 ft 142 kts 309°
2026-05-06 00:57 38.68513 -90.23119 2589 ft 142 kts 310°
2026-05-06 00:57 38.69039 -90.24193 2392 ft 141 kts 310°
2026-05-06 00:57 38.69562 -90.25254 2217 ft 141 kts 310°
2026-05-06 00:57 38.70086 -90.26316 2023 ft 141 kts 310°
2026-05-06 00:58 38.70614 -90.27386 1830 ft 142 kts 309°
2026-05-06 00:58 38.71140 -90.28453 1640 ft 142 kts 309°
2026-05-06 00:58 38.71663 -90.29514 1456 ft 141 kts 308°
2026-05-06 00:58 38.72183 -90.30577 1266 ft 141 kts 307°
2026-05-06 00:59 38.72711 -90.31641 1076 ft 141 kts 307°
2026-05-06 00:59 38.73233 -90.32697 883 ft 141 kts 306°
2026-05-06 00:59 38.73764 -90.33761 685 ft 141 kts 306°
2026-05-06 00:59 38.74263 -90.34787 577 ft 123 kts 305°
2026-05-06 01:00 38.74506 -90.35270 556 ft 33 kts 304°
2026-05-06 01:00 38.74630 -90.35522 548 ft 33 kts 304°
2026-05-06 01:00 38.74721 -90.35765 546 ft 28 kts 286°
2026-05-06 01:00 38.74741 -90.35959 545 ft 19 kts 275°
2026-05-06 01:01 38.74752 -90.36136 545 ft 20 kts 272°
2026-05-06 01:01 38.74680 -90.36272 545 ft 19 kts 215°
2026-05-06 01:01 38.74563 -90.36304 547 ft 15 kts 182°
2026-05-06 01:01 38.74459 -90.36321 548 ft 14 kts 194°
2026-05-06 01:02 38.74387 -90.36337 548 ft 7 kts 183°
2026-05-06 01:02 38.74328 -90.36346 548 ft 5 kts 202°
2026-05-06 01:02 38.74302 -90.36350 549 ft 2 kts 165°
2026-05-06 01:02 38.74294 -90.36345 549 ft 1 kts 156°
2026-05-06 01:03 38.74284 -90.36339 549 ft 2 kts 155°
2026-05-06 01:03 38.74283 -90.36339 549 ft 0 kts 155°
2026-05-06 01:03 38.74284 -90.36339 549 ft 0 kts 155°